• Join FlightAware (Why Join?)
  • Login
  • US Flag 
11:05AM EST


 

Airport Tracker/Info


-or-


 

Live Flight TrackerFlight Track Log ✈ FFT532 ✈ 10-Sep-2013 ✈ KDEN - KMDW

Flight Track Log - Related Links

Times and Time Zones

All times are in EDT time to prevent confusion due to time zone crossing. See the FFT532 flight status page for this flight to view local times or setup timezone preferences in your user account.

Time Position Orientation Groundspeed Altitude Reporting Facility
EDT Latitude Longitude Course Direction KTS MPH feet Rate Location/Type
11:36AM 39.8833 -104.5500 90° East 200 230 7,500  Level Denver TRACON
11:37AM 39.8833 -104.4500 90° East 269 310 9,200 2,040 Climbing Denver TRACON
11:38AM 39.8733 -104.3622 98° East 285 328 11,400 2,160 Climbing Denver Center
11:39AM 39.8731 -104.2483 90° East 312 359 13,400 1,680 Climbing Denver Center
11:40AM 39.8725 -104.1092 90° East 368 423 14,900 1,680 Climbing Denver Center
11:41AM 39.8711 -103.9706 91° East 385 443 16,900 1,620 Climbing Denver Center
11:42AM 39.8875 -103.8247 82° East 405 466 18,300 1,440 Climbing Denver Center
11:43AM 39.9092 -103.6858 78° East 405 466 19,900 1,560 Climbing Denver Center
11:44AM 39.9322 -103.5331 79° East 427 491 21,600 1,680 Climbing Denver Center
11:45AM 39.9597 -103.3444 79° East 443 510 23,400 1,500 Climbing Denver Center
11:46AM 39.9836 -103.1867 79° East 446 513 24,800 1,200 Climbing Denver Center
11:47AM 40.0075 -103.0247 79° East 456 525 25,900 960 Climbing Denver Center
11:48AM 40.0322 -102.8594 79° East 463 533 26,900 1,200 Climbing Denver Center
11:49AM 40.0592 -102.6669 80° East 474 545 28,400 1,200 Climbing Denver Center
11:50AM 40.0825 -102.5039 79° East 477 549 29,500 1,260 Climbing Denver Center
11:51AM 40.1089 -102.3172 79° East 471 542 31,100 1,260 Climbing Denver Center
11:52AM 40.1319 -102.1556 79° East 473 544 32,200 1,320 Climbing Denver Center
11:53AM 40.1564 -101.9689 80° East 469 540 33,900 1,320 Climbing Denver Center
11:54AM 40.1781 -101.8111 80° East 463 533 35,000 960 Climbing Denver Center
11:55AM 40.2025 -101.6303 80° East 454 522 36,000 780 Climbing Denver Center
11:56AM 40.2239 -101.4731 80° East 458 527 36,700 480 Climbing Denver Center
11:57AM 40.2478 -101.2867 80° East 466 536 37,000 120 Climbing Denver Center
11:58AM 40.2686 -101.1253 80° East 471 542 37,000  Level Denver Center
11:59AM 40.2925 -100.9350 81° East 476 548 37,000  Level Denver Center
12:00PM 40.3125 -100.7742 81° East 471 542 37,000  Level Denver Center
12:01PM 40.3367 -100.5839 80° East 475 547 37,000  Level Denver Center
12:02PM 40.3567 -100.4206 81° East 476 548 37,000  Level Denver Center
12:03PM 40.3794 -100.2303 81° East 476 548 37,000  Level Denver Center
12:05PM 40.3992 -100.0689 81° East 472 543 37,000  Level Denver Center
12:06PM 40.4219 -99.8811 81° East 471 542 37,000  Level Denver Center
12:07PM 40.4389 -99.7364 81° East 471 542 37,000  Level Denver Center
12:08PM 40.4622 -99.5333 81° East 470 541 37,000  Level Denver Center
12:09PM 40.4808 -99.3656 82° East 468 539 37,000  Level Denver Center
12:10PM 40.5003 -99.1950 81° East 472 543 37,000  Level Denver Center
12:11PM 40.5186 -99.0278 82° East 468 539 37,000  Level Denver Center
12:11PM 40.5336 -98.8925 82° East 471 542 37,000  Level Minneapolis Center
12:12PM 40.5517 -98.7228 82° East 473 544 37,000  Level Minneapolis Center
12:13PM 40.5689 -98.5528 82° East 473 544 37,000  Level Minneapolis Center
12:15PM 40.5861 -98.3842 82° East 470 541 37,000  Level Minneapolis Center
12:16PM 40.6047 -98.2164 82° East 468 539 37,000  Level Minneapolis Center
12:17PM 40.6233 -98.0150 83° East 466 536 37,000  Level Minneapolis Center
12:18PM 40.6411 -97.8469 82° East 465 535 37,000  Level Minneapolis Center
12:19PM 40.6575 -97.6764 83° East 470 541 37,000  Level Minneapolis Center
12:20PM 40.6739 -97.5042 83° East 473 544 37,000  Level Minneapolis Center
12:21PM 40.6914 -97.3236 83° East 461 531 37,000  Level Minneapolis Center
12:22PM 40.7067 -97.1608 83° East 453 521 37,000  Level Minneapolis Center
12:23PM 40.7206 -96.9978 84° East 450 518 37,000  Level Minneapolis Center
12:24PM 40.7353 -96.8378 83° East 445 512 37,000 -60 Level Minneapolis Center
12:25PM 40.7503 -96.6794 83° East 440 506 36,900  Descending Minneapolis Center
12:26PM 40.7672 -96.4878 83° East 440 506 37,000  Climbing Minneapolis Center
12:27PM 40.7808 -96.3272 84° East 443 510 37,000  Level Minneapolis Center
12:28PM 40.7947 -96.1650 83° East 446 513 37,000  Level Minneapolis Center
12:29PM 40.8086 -96.0017 84° East 449 517 37,000  Level Minneapolis Center
12:30PM 40.8253 -95.8061 84° East 450 518 37,000  Level Minneapolis Center
12:31PM 40.8372 -95.6439 84° East 449 517 37,000  Level Minneapolis Center
12:32PM 40.8478 -95.5128 84° East 450 518 37,000  Level Minneapolis Center
12:33PM 40.9208 -95.3472 60° Northeast 446 513 37,000  Level Minneapolis Center
12:34PM 41.0256 -95.2597 32° Northeast 448 516 37,000  Level Minneapolis Center
12:35PM 41.1306 -95.1708 33° Northeast 450 518 37,000  Level Minneapolis Center
12:36PM 41.2350 -95.0317 45° Northeast 457 526 37,000  Level Minneapolis Center
12:37PM 41.2483 -94.8719 84° East 443 510 37,000  Level Minneapolis Center
12:38PM 41.2489 -94.7075 90° East 444 511 37,000  Level Minneapolis Center
12:39PM 41.2497 -94.5444 90° East 442 509 37,000  Level Minneapolis Center
12:40PM 41.2494 -94.3828 90° East 440 506 37,000  Level Minneapolis Center
12:41PM 41.2481 -94.2117 91° East 451 519 37,000  Level Minneapolis Center
12:42PM 41.2486 -94.0044 90° East 465 535 37,000  Level Minneapolis Center
12:43PM 41.2481 -93.8311 90° East 470 541 37,000  Level Minneapolis Center
12:45PM 41.2478 -93.6589 90° East 470 541 37,000  Level Minneapolis Center
12:46PM 41.2489 -93.4878 89° East 468 539 37,000 -300 Level Minneapolis Center
12:47PM 41.2475 -93.3167 91° East 467 537 36,400 -780 Descending Minneapolis Center
12:48PM 41.2461 -93.1450 91° East 466 536 35,500 -960 Descending Minneapolis Center
12:49PM 41.2444 -92.9386 91° East 467 537 34,500 -960 Descending Minneapolis Center
12:50PM 41.2428 -92.7967 91° East 473 544 33,700 -900 Descending Chicago Center
12:51PM 41.2403 -92.6172 91° East 484 557 32,800 -840 Descending Chicago Center
12:52PM 41.2378 -92.4361 91° East 490 564 32,000 -900 Descending Chicago Center
12:53PM 41.2344 -92.2372 91° East 490 564 31,000 -540 Descending Chicago Center
12:54PM 41.2306 -92.0419 91° East 487 560 31,000 -180 Level Chicago Center
12:55PM 41.2281 -91.8717 91° East 470 541 30,700 -600 Descending Chicago Center
12:56PM 41.2206 -91.6983 93° East 472 543 29,800 -840 Descending Chicago Center
12:57PM 41.2169 -91.5231 92° East 462 532 29,000 -420 Descending Chicago Center
12:58PM 41.2128 -91.3547 92° East 458 527 29,000 -480 Level Chicago Center
12:59PM 41.2072 -91.1858 92° East 457 526 28,100 -1,200 Descending Chicago Center
01:00PM 41.2022 -91.0186 92° East 455 524 26,600 -1,740 Descending Chicago Center
01:01PM 41.1961 -90.8231 92° East 445 512 24,600 -1,680 Descending Chicago Center
01:02PM 41.1908 -90.6631 92° East 435 501 23,200 -1,320 Descending Chicago Center
01:03PM 41.1869 -90.5111 92° East 416 479 21,900 -1,260 Descending Chicago Center
01:04PM 41.1836 -90.3600 92° East 410 472 20,600 -1,260 Descending Chicago Center
01:05PM 41.1789 -90.2114 92° East 405 466 19,300 -1,260 Descending Chicago Center
01:06PM 41.1747 -90.0692 92° East 388 447 18,000 -1,260 Descending Chicago Center
01:07PM 41.1706 -89.9267 92° East 384 442 16,800 -1,380 Descending Chicago Center
01:08PM 41.1661 -89.7611 92° East 374 430 15,200 -900 Descending Chicago Center
01:09PM 41.1619 -89.6233 92° East 371 427 15,000 -300 Descending Chicago Center
01:10PM 41.1681 -89.4850 87° East 374 430 14,700 -480 Descending Chicago Center
01:11PM 41.1764 -89.3472 85° East 373 429 14,100 -720 Descending Chicago Center
01:12PM 41.2017 -89.2158 76° East 380 437 13,300 -960 Descending Chicago Center
01:13PM 41.2539 -89.0828 62° Northeast 371 427 12,200 -1,020 Descending Chicago Center
01:14PM 41.3008 -88.9628 62° Northeast 367 422 11,200 -1,080 Descending Chicago Center
01:16PM 41.3833 -88.7500 63° Northeast 361 415 9,400 -1,080 Descending Chicago TRACON
01:17PM 41.4333 -88.6500 56° Northeast 324 373 8,300 -1,140 Descending Chicago TRACON
01:18PM 41.4667 -88.5333 69° East 306 352 7,200 -1,200 Descending Chicago TRACON
01:19PM 41.5000 -88.4333 66° East 307 353 6,000 -600 Descending Chicago TRACON
01:20PM 41.5167 -88.3333 77° East 308 354 6,100 -420 Climbing Chicago TRACON
01:21PM 41.5500 -88.2000 71° East 299 344 5,200 -480 Descending Chicago TRACON
01:22PM 41.5500 -88.1000 90° East 304 350 5,100 -60 Descending Chicago TRACON
01:23PM 41.5500 -87.9833 90° East 303 349 5,100 -60 Level Chicago TRACON
01:24PM 41.5667 -87.8667 79° East 304 350 5,000 -120 Descending Chicago TRACON
01:25PM 41.5628 -87.8328 99° East 304 350 5,000 -540 Level Chicago Center
01:26PM 41.6139 -87.7228 58° Northeast 298 343 4,200 -780 Descending Chicago Center
01:27PM 41.6606 -87.6469 51° Northeast 281 323 3,400 -780 Descending Chicago Center
01:28PM 41.6983 -87.6164 31° Northeast 235 270 2,700 -600 Descending Chicago Center
01:29PM 41.7239 -87.6683 303° West 187 215 2,200 -480 Descending Chicago Center
01:30PM 41.7681 -87.6872 342° North 183 211 1,800 -360 Descending Chicago Center
01:31PM 41.8186 -87.7025 347° North 180 207 1,500 -480 Descending Chicago Center
01:32PM 41.7936 -87.7408 229° Southwest 153 176 900 -600 Descending Chicago Center